Stations météo

réclame
Mon MeteoGroup
Colmar, France (7197): Température de l'air & dewpoint: 22.02.2020 20:00:00 - 28.02.2020 20:00:00 (CET)Colmar, France (7197): Température de l'air 5cm: 22.02.2020 20:00:00 - 28.02.2020 20:00:00 (CET)Colmar, France (7197): Température de l'air -20cm: 22.02.2020 20:00:00 - 28.02.2020 20:00:00 (CET)Colmar, France (7197): Vitesse du vent & gusts: 22.02.2020 20:00:00 - 28.02.2020 20:00:00 (CET)Colmar, France (7197): Direction du vent: 22.02.2020 20:00:00 - 28.02.2020 20:00:00 (CET)Colmar, France (7197): reduced air pressure: 22.02.2020 20:00:00 - 28.02.2020 20:00:00 (CET)Colmar, France (7197): visibility: 22.02.2020 20:00:00 - 28.02.2020 20:00:00 (CET)Colmar, France (7197): Ensoleillement: 22.02.2020 20:00:00 - 28.02.2020 20:00:00 (CET)Colmar, France (7197): Quantités de précipitations: 22.02.2020 20:00:00 - 28.02.2020 20:00:00 (CET)
Date & Time tt [°C] td [°C] tt 5cm [°C] tt -20cm [°C] ff [km/h] ff [knt] fx [km/h] fx [knt] dd ppp [hPa] vv [km] sd [min] rr [mm]
28.02.2020 20:00:00 - - - - - - - - - - - - -
28.02.2020 19:00:00 8,9 -4,3 7,5 7,0 10 6 18 10 SSE 1016,0 20 0 0,0
28.02.2020 18:00:00 9,1 -3,8 8,2 7,1 6 3 12 7 S 1016,5 20 0 0,0
28.02.2020 17:00:00 9,5 -4,1 9,2 6,5 7 4 17 9 S 1017,2 20 13 0,0
28.02.2020 16:00:00 9,6 -4,8 10,1 6,6 11 6 26 14 SSW 1018,0 20 48 0,0
28.02.2020 15:00:00 9,9 -5,3 12,8 6,3 14 8 28 15 S 1018,7 20 60 0,0
28.02.2020 14:00:00 9,5 -3,8 12,5 5,2 14 8 25 14 SSW 1019,8 20 60 0,0
28.02.2020 13:00:00 8,6 -2,4 10,7 5,3 16 9 32 17 SW 1021,2 20 60 0,0
28.02.2020 12:00:00 8,1 -1,2 7,0 4,9 19 10 35 19 SSW 1022,4 20 47 0,0
28.02.2020 11:00:00 6,4 0,5 6,8 4,5 19 11 31 17 SSW 1022,8 20 55 0,0
28.02.2020 10:00:00 5,5 1,0 4,9 3,7 20 11 31 17 SSW 1023,1 20 60 0,0
28.02.2020 09:00:00 3,7 0,6 0,2 4,3 13 7 20 11 SW 1023,2 20 60 0,0
28.02.2020 08:00:00 1,5 -0,6 -0,2 4,0 11 6 21 11 SSW 1023,0 20 19 0,0
28.02.2020 07:00:00 1,8 -0,6 -0,7 4,7 8 4 17 9 S 1022,5 20 0 0,0
28.02.2020 06:00:00 2,1 -0,3 0,8 4,6 10 5 21 11 SSW 1021,7 20 0 0,0
28.02.2020 05:00:00 2,8 0,0 -0,2 4,5 14 8 21 11 WSW 1021,2 20 0 0,0
28.02.2020 04:00:00 2,4 -0,9 0,0 3,8 8 4 17 9 SW 1020,2 20 0 0,0
28.02.2020 03:00:00 2,0 -0,4 -0,6 5,1 11 6 20 11 SSW 1019,3 20 0 0,0
28.02.2020 02:00:00 2,6 -1,0 -0,3 4,9 8 4 32 18 NW 1018,3 20 0 0,0
28.02.2020 01:00:00 2,8 0,5 0,0 4,8 18 10 37 20 W 1016,9 20 0 0,2
28.02.2020 00:00:00 4,0 0,3 1,2 4,3 14 8 30 16 WSW 1015,3 19 0 0,2
27.02.2020 23:00:00 3,8 1,0 1,6 6,3 10 5 44 24 NW 1013,8 20 0 0,0
27.02.2020 22:00:00 5,0 -1,5 3,1 4,5 29 16 60 32 WNW 1011,7 20 0 0,0
27.02.2020 21:00:00 4,8 0,0 2,4 6,4 21 11 75 40 W 1008,7 20 0 0,0
27.02.2020 20:00:00 5,2 0,4 2,9 7,0 34 19 85 46 W 1006,3 20 0 0,2
27.02.2020 19:00:00 6,2 0,7 4,7 5,5 48 26 89 48 W 1001,7 20 0 0,0
27.02.2020 18:00:00 8,9 3,1 6,4 5,6 57 31 89 48 W 995,9 20 6 0,2
27.02.2020 17:00:00 8,5 5,9 5,0 5,6 23 12 51 28 S 993,0 20 0 0,0
27.02.2020 16:00:00 5,7 4,5 3,6 4,9 26 14 53 29 S 993,9 20 0 0,4
27.02.2020 15:00:00 3,8 3,1 1,7 4,7 23 13 42 23 S 995,0 17 0 1,0
27.02.2020 14:00:00 2,3 1,9 0,3 5,1 22 12 36 19 S 997,0 11 0 1,8
27.02.2020 13:00:00 2,0 1,3 1,4 4,2 14 8 40 22 S 999,6 13 0 1,8
27.02.2020 12:00:00 3,7 0,4 1,9 4,4 22 12 52 28 S 1002,0 18 0 0,2
27.02.2020 11:00:00 4,7 0,3 3,5 4,6 11 6 23 12 SSW 1004,5 20 0 0,0
27.02.2020 10:00:00 3,9 0,4 2,9 5,1 9 5 25 14 S 1006,7 20 0 0,0
27.02.2020 09:00:00 3,4 0,1 1,3 4,9 14 8 24 13 S 1008,5 20 0 0,0
27.02.2020 08:00:00 2,6 0,3 0,7 5,0 10 5 19 11 S 1010,0 20 9 0,0
27.02.2020 07:00:00 2,4 0,5 1,2 4,2 14 7 36 19 S 1011,0 20 0 0,0
27.02.2020 06:00:00 2,5 0,7 1,2 5,4 21 12 34 18 SSW 1011,9 20 0 0,0
27.02.2020 05:00:00 2,4 0,8 0,7 5,2 15 8 24 13 SSW 1012,6 20 0 0,0
27.02.2020 04:00:00 2,0 0,7 -0,3 3,8 14 7 22 12 S 1013,0 20 0 0,0
27.02.2020 03:00:00 1,5 0,6 0,0 5,6 13 7 37 20 SSW 1013,5 20 0 0,0
27.02.2020 02:00:00 2,2 0,9 -0,5 4,6 15 8 29 15 SSW 1013,6 20 0 0,0
27.02.2020 01:00:00 1,2 0,8 -1,6 6,6 16 9 36 19 SSW 1013,9 18 0 2,4
27.02.2020 00:00:00 2,2 0,7 -0,1 6,1 18 10 29 15 SSW 1013,7 20 0 0,0
26.02.2020 23:00:00 1,8 0,0 0,2 6,2 11 6 22 12 SSW 1013,1 20 0 0,0
26.02.2020 22:00:00 2,1 0,2 -0,4 6,4 10 5 22 12 S 1012,9 20 0 0,0
26.02.2020 21:00:00 1,6 0,0 -0,6 6,5 7 4 14 8 SSE 1012,4 20 0 0,0
26.02.2020 20:00:00 2,5 0,4 0,9 7,2 6 3 23 13 NE 1011,8 7 0 0,6
26.02.2020 19:00:00 3,4 0,1 0,6 6,8 14 8 29 15 S 1011,0 20 0 0,0
26.02.2020 18:00:00 3,6 -0,8 1,5 7,7 6 3 21 12 S 1010,1 20 0 0,0
26.02.2020 17:00:00 4,7 -2,6 3,4 6,8 5 3 26 14 W 1009,5 20 12 0,0
26.02.2020 16:00:00 5,2 0,0 1,3 7,0 10 6 42 23 WSW 1008,5 20 31 0,0
26.02.2020 15:00:00 1,0 0,6 -1,6 7,4 11 6 31 17 SW 1007,8 20 0 2,0
26.02.2020 14:00:00 3,7 0,2 2,1 6,4 26 14 44 24 WSW 1006,8 19 16 0,2
26.02.2020 13:00:00 4,2 0,3 4,9 6,6 32 18 47 26 SW 1006,2 20 22 0,0
26.02.2020 12:00:00 5,9 -3,2 4,1 7,0 14 8 37 20 WSW 1005,8 20 5 0,0
26.02.2020 11:00:00 4,5 0,1 4,2 6,2 25 13 44 24 SSW 1005,3 20 12 0,0
26.02.2020 10:00:00 4,3 -0,5 1,7 5,7 26 14 44 24 SW 1003,9 20 0 0,0
26.02.2020 09:00:00 2,8 1,3 1,7 6,3 21 11 44 24 SSW 1002,8 20 0 0,0
26.02.2020 08:00:00 3,3 0,3 0,9 6,0 22 12 36 19 SW 1002,5 20 7 0,0
26.02.2020 07:00:00 2,9 0,0 1,5 7,1 20 11 33 18 SW 1003,0 20 0 0,0
26.02.2020 06:00:00 3,4 -1,2 1,7 7,2 15 8 39 21 SSW 1003,6 20 0 0,0
26.02.2020 05:00:00 4,1 -1,5 1,5 7,1 29 16 49 26 WSW 1003,9 20 0 0,0
26.02.2020 04:00:00 3,5 -0,3 1,8 8,3 15 8 43 23 SW 1004,3 20 0 0,0
26.02.2020 03:00:00 4,6 -0,4 2,6 7,8 23 12 41 22 WSW 1004,0 20 0 0,0
26.02.2020 02:00:00 4,8 1,5 2,7 8,1 23 12 88 47 W 1003,4 20 0 0,2
26.02.2020 01:00:00 7,3 2,4 6,0 7,9 24 13 45 25 SSW 1001,9 20 0 0,0
26.02.2020 00:00:00 8,0 3,3 6,7 7,8 26 14 41 22 SSW 1002,0 20 0 0,0
25.02.2020 23:00:00 8,2 3,6 6,4 7,8 22 12 35 19 SSW 1002,4 20 0 0,0
25.02.2020 22:00:00 8,0 4,6 6,6 8,3 16 9 28 15 SSW 1003,2 20 0 0,0
25.02.2020 21:00:00 7,5 3,4 5,8 8,7 11 6 30 16 S 1003,9 20 0 0,0
25.02.2020 20:00:00 8,4 0,6 5,4 9,2 13 7 29 16 SSW 1004,5 20 0 0,0
25.02.2020 19:00:00 8,4 4,4 6,8 8,9 8 4 25 14 S 1004,9 20 0 0,0
25.02.2020 18:00:00 9,6 3,6 8,0 8,5 20 11 38 20 WSW 1004,8 20 9 0,0
25.02.2020 17:00:00 10,0 6,5 9,3 9,1 23 12 40 21 SSW 1004,8 20 0 0,0
25.02.2020 16:00:00 9,7 6,2 8,7 8,4 27 15 51 27 SSW 1005,2 20 0 0,0
25.02.2020 15:00:00 9,5 6,2 9,5 8,9 33 18 52 28 SSW 1005,8 20 34 0,0
25.02.2020 14:00:00 9,5 6,2 8,8 8,8 31 17 52 28 SW 1006,4 20 8 0,0
25.02.2020 13:00:00 9,1 5,6 7,5 8,7 26 14 42 23 SW 1007,7 20 0 0,0
25.02.2020 12:00:00 8,6 5,7 7,0 8,5 30 16 49 26 SSW 1008,2 20 0 0,0
25.02.2020 11:00:00 8,2 5,8 6,6 8,3 22 12 43 23 SSW 1009,2 20 0 0,0
25.02.2020 10:00:00 7,8 5,6 4,9 8,7 28 15 51 27 SSW 1009,4 20 0 0,2
25.02.2020 09:00:00 7,1 5,4 4,8 8,3 30 16 56 31 SSW 1010,0 20 0 0,0
25.02.2020 08:00:00 7,5 4,4 5,5 8,5 36 19 52 28 SSW 1009,9 20 0 0,0
25.02.2020 07:00:00 7,8 4,2 5,9 8,8 23 12 39 21 SSW 1010,2 20 0 0,0
25.02.2020 06:00:00 8,4 3,6 6,2 9,3 20 11 42 23 SSW 1010,3 20 0 0,0
25.02.2020 05:00:00 9,7 3,0 8,3 9,5 27 15 55 30 SW 1010,1 20 0 0,0
25.02.2020 04:00:00 10,7 3,0 8,6 8,8 29 16 46 25 SW 1010,1 20 0 0,0
25.02.2020 03:00:00 11,1 4,5 8,8 9,6 24 13 44 24 SW 1010,3 20 0 0,0
25.02.2020 02:00:00 10,7 5,9 8,6 9,6 23 12 37 20 SSW 1010,8 20 0 0,0
25.02.2020 01:00:00 10,8 6,3 8,6 8,6 20 11 36 19 SSW 1011,7 20 0 0,0
25.02.2020 00:00:00 13,0 6,6 10,1 10,6 23 13 41 22 SW 1012,2 20 0 0,0
24.02.2020 23:00:00 12,0 6,5 10,6 10,6 16 9 31 17 SSW 1013,1 20 0 0,0
24.02.2020 22:00:00 13,3 6,9 11,1 11,0 10 5 41 22 SSW 1013,9 20 0 0,0
24.02.2020 21:00:00 14,6 6,9 12,2 10,8 22 12 39 21 SW 1014,3 20 0 0,0
24.02.2020 20:00:00 14,7 6,5 10,7 10,7 19 10 33 18 SSW 1014,4 20 0 0,0
24.02.2020 19:00:00 13,8 7,1 11,7 11,4 10 5 22 12 SSE 1014,9 20 0 0,0
24.02.2020 18:00:00 14,9 7,7 13,6 11,1 17 9 39 21 SSW 1015,2 20 42 0,0
24.02.2020 17:00:00 15,7 8,0 16,5 10,9 22 12 45 25 SSW 1015,9 20 60 0,0
24.02.2020 16:00:00 15,8 7,8 17,4 11,3 22 12 48 26 SSW 1017,1 20 60 0,0
24.02.2020 15:00:00 15,2 8,0 16,7 10,5 25 14 46 25 SSW 1017,9 20 60 0,0
24.02.2020 14:00:00 14,3 8,5 16,2 9,8 29 16 48 26 SSW 1019,3 20 60 0,0
24.02.2020 13:00:00 13,4 8,0 15,4 9,6 32 17 55 30 SSW 1020,6 20 60 0,0
24.02.2020 12:00:00 13,7 8,3 15,4 9,4 35 19 50 27 SSW 1021,7 20 60 0,0
24.02.2020 11:00:00 14,1 8,5 14,4 8,5 21 11 33 18 SSW 1022,4 19 60 0,0
24.02.2020 10:00:00 10,9 8,1 11,0 8,7 10 5 20 11 N 1023,5 20 47 0,0
24.02.2020 09:00:00 11,7 8,0 10,4 8,9 13 7 22 12 SSW 1023,9 20 0 0,0
24.02.2020 08:00:00 11,3 8,0 10,0 8,7 11 6 25 14 S 1024,7 20 0 0,0
24.02.2020 07:00:00 11,2 8,1 9,5 8,6 13 7 21 12 S 1024,9 20 0 0,0
24.02.2020 06:00:00 11,3 8,3 9,2 10,1 11 6 23 12 S 1025,6 20 0 0,0
24.02.2020 05:00:00 11,2 8,2 9,3 8,8 11 6 36 19 SSW 1025,7 20 0 0,0
24.02.2020 04:00:00 11,4 8,4 10,3 8,8 22 12 36 19 SW 1025,8 20 0 0,0
24.02.2020 03:00:00 11,9 8,4 10,3 8,0 22 12 37 20 SSW 1026,2 20 0 0,0
24.02.2020 02:00:00 12,8 8,3 11,6 9,4 20 11 34 19 SW 1026,5 20 0 0,0
24.02.2020 01:00:00 13,5 8,1 12,4 9,0 20 11 33 18 SSW 1026,5 20 0 0,0
24.02.2020 00:00:00 13,9 8,3 13,0 8,5 19 10 34 19 SW 1025,9 20 0 0,0
23.02.2020 23:00:00 14,6 8,3 13,7 8,6 21 12 42 23 WSW 1025,7 20 0 0,0
23.02.2020 22:00:00 15,1 7,6 14,2 8,7 21 12 40 22 SW 1025,0 20 0 0,0
23.02.2020 21:00:00 15,2 7,0 13,9 8,1 26 14 46 25 SW 1024,5 20 0 0,0
23.02.2020 20:00:00 15,7 6,1 14,5 8,7 23 13 48 26 SW 1024,7 20 0 0,0
23.02.2020 19:00:00 15,5 4,8 14,1 8,6 26 14 41 22 SW 1024,3 20 0 0,0
23.02.2020 18:00:00 15,1 5,9 13,9 8,0 22 12 46 25 SW 1024,0 20 4 0,0
23.02.2020 17:00:00 15,7 4,4 14,7 8,3 30 16 58 32 SW 1023,5 20 0 0,0
23.02.2020 16:00:00 16,2 3,3 15,6 7,9 37 20 65 35 SW 1023,0 20 5 0,0
23.02.2020 15:00:00 15,7 4,1 15,4 7,7 39 21 63 34 SW 1023,2 20 0 0,0
23.02.2020 14:00:00 15,6 1,7 14,1 7,6 39 21 74 40 SW 1023,7 20 0 0,0
23.02.2020 13:00:00 14,1 1,4 13,7 7,4 36 19 71 38 SW 1024,9 20 0 0,0
23.02.2020 12:00:00 13,6 0,6 12,6 7,4 36 20 63 34 SW 1025,8 20 0 0,0
23.02.2020 11:00:00 12,7 1,1 11,7 7,1 39 21 72 39 SSW 1026,0 20 0 0,0
23.02.2020 10:00:00 12,3 1,0 10,8 7,4 22 12 43 23 SSW 1027,1 20 0 0,0
23.02.2020 09:00:00 11,5 2,0 9,4 7,5 25 14 39 21 SSW 1027,6 20 0 0,0
23.02.2020 08:00:00 10,3 3,1 8,5 7,1 21 11 42 23 S 1027,2 20 0 0,0
23.02.2020 07:00:00 9,9 3,6 8,4 7,6 18 10 42 23 S 1028,0 20 0 0,0
23.02.2020 06:00:00 9,7 4,5 8,0 8,3 26 14 49 26 SSW 1028,0 20 0 0,0
23.02.2020 05:00:00 10,4 4,5 8,3 7,4 29 16 46 25 SW 1029,2 20 0 0,0
23.02.2020 04:00:00 10,8 4,0 9,0 7,5 21 11 33 18 SW 1029,2 20 0 0,0
23.02.2020 03:00:00 10,9 1,7 9,5 6,8 10 6 31 17 SSW 1029,2 20 0 0,0
23.02.2020 02:00:00 11,2 1,1 9,1 7,3 18 10 32 18 SSW 1029,3 20 0 0,0
23.02.2020 01:00:00 11,1 0,8 9,4 7,1 11 6 23 12 S 1029,3 20 0 0,0
23.02.2020 00:00:00 11,8 -0,4 10,3 7,7 4 2 23 12 S 1030,5 20 0 0,0
22.02.2020 23:00:00 11,9 -0,3 9,9 7,5 10 5 29 16 SW 1030,3 20 0 0,0
22.02.2020 22:00:00 12,0 -0,2 10,6 7,1 18 10 31 17 SSW 1029,6 20 0 0,0
22.02.2020 21:00:00 12,3 -0,3 10,6 7,2 19 10 35 19 SSW 1029,4 20 0 0,0
22.02.2020 20:00:00 12,5 -0,4 11,3 7,8 19 10 36 19 SSW 1029,2 20 0 0,0

tt = Température de l'air
td = dewpoint
tt 5cm = Température de l'air 5cm
tt -20cm = Température de l'air -20cm
ff = Vitesse du vent
fx = gusts
dd = Direction du vent
ppp = reduced air pressure
vv = visibility
sd = Ensoleillement
rr = Quantités de précipitations

stations d'obs. à proximité